Creek Data

    Home     View Charts     View Raw Data     Messages

ID Distance Battery Voltage Battery Current Internal Temp Internal Humidity External Temp Solar Input rssi snr Time Stamp Record
66568 12.8 3.88 -5 43 52 44 0 -69 9 02/17/2026 08:30 PM 49388
66567 12.8 3.71 -5 43 52 44 0 -69 8 02/17/2026 08:15 PM 49387
66566 12.8 3.88 -5 43 52 43 0 -69 9 02/17/2026 08:00 PM 49386
66565 12.8 3.69 -5 43 52 44 0.1 -69 9 02/17/2026 07:45 PM 49385
66564 12.8 3.88 -5 43 52 44 0 -69 8 02/17/2026 07:30 PM 49384
66563 12.9 3.70 -5 44 52 45 0 -68 9 02/17/2026 07:15 PM 49383
66562 12.9 3.69 -5 44 52 44 0 -69 9 02/17/2026 07:00 PM 49382
66561 12.9 3.88 -5 44 52 44 0 -69 8 02/17/2026 06:45 PM 49381
66560 12.9 3.70 -5 44 52 45 0 -69 8 02/17/2026 06:30 PM 49380
66559 12.9 3.88 -5 44 52 45 0 -68 8 02/17/2026 06:15 PM 49379
66558 13.0 3.69 -5 45 52 45 0.7 -68 9 02/17/2026 06:00 PM 49378
66557 13.0 3.88 -5 45 52 46 1.7 -67 9 02/17/2026 05:45 PM 49377
66556 13.0 3.86 -9 45 51 46 4.2 -69 8 02/17/2026 05:30 PM 49376
66555 13.0 3.73 0 46 51 46 4.5 -69 9 02/17/2026 05:15 PM 49375
66554 13.0 4.04 0 45 51 46 4.5 -69 8 02/17/2026 05:00 PM 49374
66553 13.0 3.96 6 45 51 46 4.5 -69 8 02/17/2026 04:45 PM 49373
66552 13.0 3.99 10 45 51 45 4.5 -68 8 02/17/2026 04:30 PM 49372
66551 13.0 3.89 -13 44 52 45 4.6 -70 8 02/17/2026 04:15 PM 49371
66550 13.0 3.93 20 44 52 45 4.5 -72 8 02/17/2026 04:00 PM 49370
66549 13.1 3.95 6 44 52 45 4.5 -76 8 02/17/2026 03:45 PM 49369
66548 13.1 4.01 0 45 52 45 4.5 -74 8 02/17/2026 03:30 PM 49368
66547 13.1 3.82 14 46 52 46 4.5 -69 9 02/17/2026 03:15 PM 49367
66546 13.1 3.86 0 46 51 46 5.1 -69 8 02/17/2026 03:00 PM 49366
66545 13.1 3.85 0 47 51 46 5.1 -67 8 02/17/2026 02:45 PM 49365
66544 13.1 3.85 0 47 51 46 5.1 -70 9 02/17/2026 02:30 PM 49364